リニア彗星

216P/LINEAR (2008)

English version
Home page
Updated on March 17, 2010

---------------------------------------------------------------------

・ プロフィール

符号 216P/2009 D1
検出日 2009年2月19日
検出光度 20.9等
検出者 J. V. Scotti (Lunar and Planetary Laboratory)

・ 軌道要素

Epoch 2008 Oct. 21.0 TT = JDT 2454760.5
T 2008 Oct. 10.97675 TT                                 MPC
q   2.1598786            (2000.0)            P               Q
n   0.12868021     Peri.  151.59703     -0.87874631     -0.47728906
a   3.8856309      Node   359.89315     +0.40279446     -0.74126337
e   0.4441370      Incl.    9.03508     +0.25604991     -0.47193620
P   7.66

・ 光度変化

        m1 = 2.0 + 5 logΔ + 45 log r

---------------------------------------------------------------------

軌道要素はM.P.E.C. 2009-D39に掲載されたものです。
光度グラフはComet for Windowsで作成したものです。

---------------------------------------------------------------------

Copyright(C) Seiichi Yoshida (comet@aerith.net). All rights reserved.